Chrysopouli, Greece

7:12 AM EEST on April 24, 2017 (GMT +0300)
Megas Alexandros

Weather History for LGKV - October, 2012

Change the Weather History Date:

Monday, October 22, 2012

  Actual Average Record
Temperature  
Mean Temperature 64 °F -  
Max Temperature 69 °F 64 °F 75 °F (2001)
Min Temperature 59 °F 50 °F 44 °F (1997)
Degree Days  
Heating Degree Days 1    
Growing Degree Days 14 (Base 50)    
Moisture  
Dew Point 55 °F    
Average Humidity 71    
Maximum Humidity 88    
Minimum Humidity 56    
Precipitation  
Precipitation 0.00 in - - ()
Sea Level Pressure  
Sea Level Pressure 30.01 in    
Wind  
Wind Speed 2 mph ()    
Max Wind Speed 9 mph    
Max Gust Speed -    
Visibility 6.1 miles    
Events Rain    
Averages and records for this station are not official NWS values.
T = Trace of Precipitation, MM = Missing Value Source: Averaged Metar Reports

Daily Weather History Graph

Daily Weather History Graph

Search for Another Location

Airport or City:

Trip Planner

Search our weather history database for the weather conditions in past years. The results will help you decide how hot, cold, wet, or windy it might be!

Date:

Astronomy

Oct. 22, 2012 Rise Set
Actual Time 7:41 AM EEST 6:30 PM EEST
Civil Twilight 7:13 AM EEST 6:58 PM EEST
Nautical Twilight 6:40 AM EEST 7:30 PM EEST
Astronomical Twilight 6:09 AM EEST 8:02 PM EEST
Moon 2:29 PM EEST (10/22) 12:03 AM EEST (10/22)
Length of Visible Light 11h 45m
Length of Day
10h 49m
First Quarter, 53% of the Moon is Illuminated
Oct 22
First Quarter
Oct 29
Full
Nov 7
Last Quarter
Nov 14
New
Nov 20
First Quarter

Hourly Weather History & Observations

Time (EEST) Temp. Dew Point Humidity Pressure Visibility Wind Dir Wind Speed Gust Speed Precip Events Conditions
5:20 AM 59.0 °F 50.0 °F 72% 30.01 in 6.2 mi WNW 4.6 mph - N/A   Mostly Cloudy
5:50 AM 59.0 °F 50.0 °F 72% 30.01 in 6.2 mi Calm Calm - N/A   Mostly Cloudy
6:20 AM 59.0 °F 50.0 °F 72% 30.01 in 6.2 mi Calm Calm - N/A   Mostly Cloudy
6:50 AM 59.0 °F 50.0 °F 72% 30.01 in 6.2 mi Calm Calm - N/A   Mostly Cloudy
7:20 AM 62.6 °F 50.0 °F 63% 30.01 in 6.2 mi ENE 4.6 mph - N/A   Mostly Cloudy
7:50 AM 62.6 °F 50.0 °F 63% 30.04 in 6.2 mi NE 4.6 mph - N/A   Mostly Cloudy
8:20 AM 60.8 °F 53.6 °F 77% 30.04 in 6.2 mi Calm Calm - N/A   Mostly Cloudy
8:50 AM 59.0 °F 53.6 °F 82% 30.04 in 6.2 mi East 4.6 mph - N/A   Mostly Cloudy
9:20 AM 59.0 °F 55.4 °F 88% 30.04 in 3.1 mi East 4.6 mph - N/A Rain Light Rain
9:50 AM 59.0 °F 55.4 °F 88% 30.04 in 6.2 mi Calm Calm - N/A   Mostly Cloudy
10:20 AM 59.0 °F 55.4 °F 88% 30.04 in 6.2 mi Calm Calm - N/A   Mostly Cloudy
10:50 AM 60.8 °F 57.2 °F 88% 30.04 in 6.2 mi Calm Calm - N/A   Mostly Cloudy
11:20 AM 60.8 °F 57.2 °F 88% 30.04 in 6.2 mi Calm Calm - N/A   Mostly Cloudy
11:50 AM 66.2 °F 59.0 °F 78% 30.04 in 6.2 mi Calm Calm - N/A   Mostly Cloudy
12:20 PM 66.2 °F 59.0 °F 78% 30.04 in 6.2 mi Calm Calm - N/A   Mostly Cloudy
12:50 PM 68.0 °F 55.4 °F 64% 30.04 in 6.2 mi Calm Calm - N/A   Mostly Cloudy
1:20 PM 68.0 °F 55.4 °F 64% 30.01 in 6.2 mi Calm Calm - N/A   Mostly Cloudy
1:50 PM 68.0 °F 55.4 °F 64% 30.01 in 6.2 mi WSW 4.6 mph - N/A   Mostly Cloudy
2:20 PM 68.0 °F 55.4 °F 64% 30.01 in 6.2 mi WSW 9.2 mph - N/A   Mostly Cloudy
2:50 PM 68.0 °F 55.4 °F 64% 30.01 in 6.2 mi WSW 5.8 mph - N/A   Mostly Cloudy
3:20 PM 68.0 °F 55.4 °F 64% 30.01 in 6.2 mi WSW 5.8 mph - N/A   Mostly Cloudy
3:50 PM 69.8 °F 53.6 °F 56% 29.98 in 6.2 mi West 5.8 mph - N/A   Mostly Cloudy
4:20 PM 69.8 °F 53.6 °F 56% 29.98 in 6.2 mi WSW 4.6 mph - N/A   Mostly Cloudy
4:50 PM 68.0 °F 53.6 °F 60% 29.98 in 6.2 mi Calm Calm - N/A   Mostly Cloudy
5:20 PM 69.8 °F 55.4 °F 60% 29.98 in 6.2 mi NE 4.6 mph - N/A   Mostly Cloudy
5:50 PM 69.8 °F 57.2 °F 64% 29.98 in 6.2 mi NNW 5.8 mph - N/A   Mostly Cloudy
6:20 PM 69.8 °F 57.2 °F 64% 29.98 in 6.2 mi Calm Calm - N/A   Mostly Cloudy
6:50 PM 66.2 °F 57.2 °F 73% 29.98 in 6.2 mi Calm Calm - N/A   Mostly Cloudy
7:20 PM 66.2 °F 57.2 °F 73% 29.98 in 6.2 mi Calm Calm - N/A   Mostly Cloudy
7:50 PM 64.4 °F 55.4 °F 73% 29.98 in 6.2 mi Calm Calm - N/A   Mostly Cloudy
8:20 PM 64.4 °F 55.4 °F 73% 29.98 in 6.2 mi Calm Calm - N/A   Mostly Cloudy
8:50 PM 64.4 °F 55.4 °F 73% 30.01 in 6.2 mi Calm Calm - N/A   Mostly Cloudy
9:20 PM 64.4 °F 55.4 °F 73% 30.01 in 6.2 mi Calm Calm - N/A   Mostly Cloudy
9:50 PM 64.4 °F 55.4 °F 73% 30.01 in 6.2 mi East 4.6 mph - N/A   Mostly Cloudy